Year,Month,Day,Hour,Minute,Value (Times are PST for temperature in C)
2007,04,20,00,00,5.10
2007,04,20,00,01,5.10
2007,04,20,00,02,5.10
2007,04,20,00,03,5.10
2007,04,20,00,04,5.10
2007,04,20,00,05,5.10
2007,04,20,00,06,5.10
2007,04,20,00,07,5.10
2007,04,20,00,08,5.10
2007,04,20,00,09,5.10
2007,04,20,00,10,5.10
2007,04,20,00,11,5.10
2007,04,20,00,12,5.10
2007,04,20,00,13,5.10
2007,04,20,00,14,5.10
2007,04,20,00,15,5.10
2007,04,20,00,16,5.10
2007,04,20,00,17,5.10
2007,04,20,00,18,5.10
2007,04,20,00,19,5.10
2007,04,20,00,20,5.10
2007,04,20,00,21,5.10
2007,04,20,00,22,5.10
2007,04,20,00,23,5.10
2007,04,20,00,24,5.10
2007,04,20,00,25,5.10
2007,04,20,00,26,5.10
2007,04,20,00,27,5.10
2007,04,20,00,28,5.00
2007,04,20,00,29,4.90
2007,04,20,00,30,4.90
2007,04,20,00,31,4.90
2007,04,20,00,32,4.90
2007,04,20,00,33,4.90
2007,04,20,00,34,4.90
2007,04,20,00,35,4.90
2007,04,20,00,36,4.90
2007,04,20,00,37,4.90
2007,04,20,00,38,4.90
2007,04,20,00,39,4.90
2007,04,20,00,40,4.90
2007,04,20,00,41,4.90
2007,04,20,00,42,4.90
2007,04,20,00,43,4.90
2007,04,20,00,44,4.90
2007,04,20,00,45,4.90
2007,04,20,00,46,4.90
2007,04,20,00,47,4.80
2007,04,20,00,48,4.80
2007,04,20,00,49,4.80
2007,04,20,00,50,4.70
2007,04,20,00,51,4.70
2007,04,20,00,52,4.70
2007,04,20,00,53,4.70
2007,04,20,00,54,4.70
2007,04,20,00,55,4.70
2007,04,20,00,56,4.70
2007,04,20,00,57,4.70
2007,04,20,00,58,4.70
2007,04,20,00,59,4.70
2007,04,20,01,00,4.60
2007,04,20,01,01,4.60
2007,04,20,01,02,4.60
2007,04,20,01,03,4.60
2007,04,20,01,04,4.60
2007,04,20,01,05,4.50
2007,04,20,01,06,4.50
2007,04,20,01,07,4.50
2007,04,20,01,08,4.50
2007,04,20,01,09,4.40
2007,04,20,01,10,4.40
2007,04,20,01,11,4.40
2007,04,20,01,12,4.30
2007,04,20,01,13,4.30
2007,04,20,01,14,4.30
2007,04,20,01,15,4.30
2007,04,20,01,16,4.20
2007,04,20,01,17,4.20
2007,04,20,01,18,4.20
2007,04,20,01,19,4.20
2007,04,20,01,20,4.20
2007,04,20,01,21,4.20
2007,04,20,01,22,4.20
2007,04,20,01,23,4.20
2007,04,20,01,24,4.20
2007,04,20,01,25,4.10
2007,04,20,01,26,4.10
2007,04,20,01,27,4.10
2007,04,20,01,28,4.10
2007,04,20,01,29,4.10
2007,04,20,01,30,4.00
2007,04,20,01,31,4.00
2007,04,20,01,32,4.00
2007,04,20,01,33,4.00
2007,04,20,01,34,4.00
2007,04,20,01,35,4.00
2007,04,20,01,36,4.00
2007,04,20,01,37,3.90
2007,04,20,01,38,3.90
2007,04,20,01,39,3.90
2007,04,20,01,40,3.90
2007,04,20,01,41,3.80
2007,04,20,01,42,3.80
2007,04,20,01,43,3.80
2007,04,20,01,44,3.80
2007,04,20,01,45,3.80
2007,04,20,01,46,3.80
2007,04,20,01,47,3.80
2007,04,20,01,48,3.80
2007,04,20,01,49,3.80
2007,04,20,01,50,3.80
2007,04,20,01,51,3.90
2007,04,20,01,52,3.90
2007,04,20,01,53,4.00
2007,04,20,01,54,4.00
2007,04,20,01,55,4.00
2007,04,20,01,56,4.10
2007,04,20,01,57,4.10
2007,04,20,01,58,4.20
2007,04,20,01,59,4.20
2007,04,20,02,00,4.20
2007,04,20,02,01,4.20
2007,04,20,02,02,4.20
2007,04,20,02,03,4.20
2007,04,20,02,04,4.20
2007,04,20,02,05,4.20
2007,04,20,02,06,4.20
2007,04,20,02,07,4.20
2007,04,20,02,08,4.20
2007,04,20,02,09,4.20
2007,04,20,02,10,4.20
2007,04,20,02,11,4.20
2007,04,20,02,12,4.20
2007,04,20,02,13,4.20
2007,04,20,02,14,4.20
2007,04,20,02,15,4.20
2007,04,20,02,16,4.20
2007,04,20,02,17,4.20
2007,04,20,02,18,4.20
2007,04,20,02,19,4.20
2007,04,20,02,20,4.20
2007,04,20,02,21,4.30
2007,04,20,02,22,4.30
2007,04,20,02,23,4.30
2007,04,20,02,24,4.30
2007,04,20,02,25,4.30
2007,04,20,02,26,4.30
2007,04,20,02,27,4.30
2007,04,20,02,28,4.40
2007,04,20,02,29,4.40
2007,04,20,02,30,4.40
2007,04,20,02,31,4.40
2007,04,20,02,32,4.40
2007,04,20,02,33,4.50
2007,04,20,02,34,4.50
2007,04,20,02,35,4.50
2007,04,20,02,36,4.50
2007,04,20,02,37,4.50
2007,04,20,02,38,4.50
2007,04,20,02,39,4.50
2007,04,20,02,40,4.50
2007,04,20,02,41,4.60
2007,04,20,02,42,4.60
2007,04,20,02,43,4.60
2007,04,20,02,44,4.60
2007,04,20,02,45,4.60
2007,04,20,02,46,4.60
2007,04,20,02,47,4.60
2007,04,20,02,48,4.60
2007,04,20,02,49,4.60
2007,04,20,02,50,4.50
2007,04,20,02,51,4.50
2007,04,20,02,52,4.60
2007,04,20,02,53,4.60
2007,04,20,02,54,4.60
2007,04,20,02,55,4.60
2007,04,20,02,56,4.60
2007,04,20,02,57,4.60
2007,04,20,02,58,4.70
2007,04,20,02,59,4.70
2007,04,20,03,00,4.70
2007,04,20,03,01,4.80
2007,04,20,03,02,4.80
2007,04,20,03,03,4.80
2007,04,20,03,04,4.80
2007,04,20,03,05,4.80
2007,04,20,03,06,4.80
2007,04,20,03,07,4.80
2007,04,20,03,08,4.80
2007,04,20,03,09,4.80
2007,04,20,03,10,4.80
2007,04,20,03,11,4.80
2007,04,20,03,12,4.80
2007,04,20,03,13,4.80
2007,04,20,03,14,4.80
2007,04,20,03,15,4.80
2007,04,20,03,16,4.70
2007,04,20,03,17,4.70
2007,04,20,03,18,4.70
2007,04,20,03,19,4.70
2007,04,20,03,20,4.60
2007,04,20,03,21,4.60
2007,04,20,03,22,4.60
2007,04,20,03,23,4.60
2007,04,20,03,24,4.50
2007,04,20,03,25,4.50
2007,04,20,03,26,4.50
2007,04,20,03,27,4.40
2007,04,20,03,28,4.40
2007,04,20,03,29,4.30
2007,04,20,03,30,4.30
2007,04,20,03,31,4.20
2007,04,20,03,32,4.20
2007,04,20,03,33,4.20
2007,04,20,03,34,4.20
2007,04,20,03,35,4.20
2007,04,20,03,36,4.20
2007,04,20,03,37,4.20
2007,04,20,03,38,4.20
2007,04,20,03,39,4.20
2007,04,20,03,40,4.20
2007,04,20,03,41,4.20
2007,04,20,03,42,4.20
2007,04,20,03,43,4.20
2007,04,20,03,44,4.20
2007,04,20,03,45,4.20
2007,04,20,03,46,4.20
2007,04,20,03,47,4.20
2007,04,20,03,48,4.20
2007,04,20,03,49,4.20
2007,04,20,03,50,4.20
2007,04,20,03,51,4.20
2007,04,20,03,52,4.20
2007,04,20,03,53,4.20
2007,04,20,03,54,4.20
2007,04,20,03,55,4.20
2007,04,20,03,56,4.10
2007,04,20,03,57,4.10
2007,04,20,03,58,4.10
2007,04,20,03,59,4.10
2007,04,20,04,00,4.10
2007,04,20,04,01,4.10
2007,04,20,04,02,4.10
2007,04,20,04,03,4.10
2007,04,20,04,04,4.10
2007,04,20,04,05,4.10
2007,04,20,04,06,4.00
2007,04,20,04,07,4.00
2007,04,20,04,08,4.00
2007,04,20,04,09,4.00
2007,04,20,04,10,4.00
2007,04,20,04,11,4.10
2007,04,20,04,12,4.10
2007,04,20,04,13,4.10
2007,04,20,04,14,4.10
2007,04,20,04,15,4.10
2007,04,20,04,16,4.20
2007,04,20,04,17,4.20
2007,04,20,04,18,4.20
2007,04,20,04,19,4.20
2007,04,20,04,20,4.20
2007,04,20,04,21,4.20
2007,04,20,04,22,4.20
2007,04,20,04,23,4.20
2007,04,20,04,24,4.20
2007,04,20,04,25,4.20
2007,04,20,04,26,4.20
2007,04,20,04,27,4.10
2007,04,20,04,28,4.10
2007,04,20,04,29,4.10
2007,04,20,04,30,4.10
2007,04,20,04,31,4.10
2007,04,20,04,32,4.10
2007,04,20,04,33,4.10
2007,04,20,04,34,4.10
2007,04,20,04,35,4.10
2007,04,20,04,36,4.00
2007,04,20,04,37,4.00
2007,04,20,04,38,4.00
2007,04,20,04,39,4.00
2007,04,20,04,40,4.00
2007,04,20,04,41,3.90
2007,04,20,04,42,3.90
2007,04,20,04,43,3.90
2007,04,20,04,44,3.90
2007,04,20,04,45,3.90
2007,04,20,04,46,3.90
2007,04,20,04,47,3.90
2007,04,20,04,48,3.90
2007,04,20,04,49,3.90
2007,04,20,04,50,3.90
2007,04,20,04,51,3.90
2007,04,20,04,52,3.90
2007,04,20,04,53,3.90
2007,04,20,04,54,3.90
2007,04,20,04,55,3.90
2007,04,20,04,56,3.80
2007,04,20,04,57,3.80
2007,04,20,04,58,3.80
2007,04,20,04,59,3.80
2007,04,20,05,00,3.80
2007,04,20,05,01,3.80
2007,04,20,05,02,3.80
2007,04,20,05,03,3.80
2007,04,20,05,04,3.70
2007,04,20,05,05,3.70
2007,04,20,05,06,3.70
2007,04,20,05,07,3.70
2007,04,20,05,08,3.70
2007,04,20,05,09,3.60
2007,04,20,05,10,3.60
2007,04,20,05,11,3.60
2007,04,20,05,12,3.60
2007,04,20,05,13,3.60
2007,04,20,05,14,3.60
2007,04,20,05,15,3.60
2007,04,20,05,16,3.60
2007,04,20,05,17,3.50
2007,04,20,05,18,3.50
2007,04,20,05,19,3.50
2007,04,20,05,20,3.50
2007,04,20,05,21,3.40
2007,04,20,05,22,3.40
2007,04,20,05,23,3.40
2007,04,20,05,24,3.30
2007,04,20,05,25,3.30
2007,04,20,05,26,3.30
2007,04,20,05,27,3.30
2007,04,20,05,28,3.30
2007,04,20,05,29,3.20
2007,04,20,05,30,3.20
2007,04,20,05,31,3.20
2007,04,20,05,32,3.20
2007,04,20,05,33,3.10
2007,04,20,05,34,3.10
2007,04,20,05,35,3.10
2007,04,20,05,36,3.10
2007,04,20,05,37,3.10
2007,04,20,05,38,3.10
2007,04,20,05,39,3.10
2007,04,20,05,40,3.10
2007,04,20,05,41,3.10
2007,04,20,05,42,3.10
2007,04,20,05,43,3.10
2007,04,20,05,44,3.10
2007,04,20,05,45,3.10
2007,04,20,05,46,3.10
2007,04,20,05,47,3.10
2007,04,20,05,48,3.10
2007,04,20,05,49,3.10
2007,04,20,05,50,3.10
2007,04,20,05,51,3.10
2007,04,20,05,52,3.20
2007,04,20,05,53,3.20
2007,04,20,05,54,3.30
2007,04,20,05,55,3.30
2007,04,20,05,56,3.30
2007,04,20,05,57,3.30
2007,04,20,05,58,3.30
2007,04,20,05,59,3.30
2007,04,20,06,00,3.30
2007,04,20,06,01,3.30
2007,04,20,06,02,3.30
2007,04,20,06,03,3.30
2007,04,20,06,04,3.30
2007,04,20,06,05,3.30
2007,04,20,06,06,3.30
2007,04,20,06,07,3.30
2007,04,20,06,08,3.30
2007,04,20,06,09,3.40
2007,04,20,06,10,3.40
2007,04,20,06,11,3.40
2007,04,20,06,12,3.40
2007,04,20,06,13,3.40
2007,04,20,06,14,3.40
2007,04,20,06,15,3.40
2007,04,20,06,16,3.40
2007,04,20,06,17,3.40
2007,04,20,06,18,3.40
2007,04,20,06,19,3.40
2007,04,20,06,20,3.40
2007,04,20,06,21,3.40
2007,04,20,06,22,3.40
2007,04,20,06,23,3.40
2007,04,20,06,24,3.40
2007,04,20,06,25,3.40
2007,04,20,06,26,3.50
2007,04,20,06,27,3.50
2007,04,20,06,28,3.50
2007,04,20,06,29,3.50
2007,04,20,06,30,3.50
2007,04,20,06,31,3.50
2007,04,20,06,32,3.50
2007,04,20,06,33,3.40
2007,04,20,06,34,3.40
2007,04,20,06,35,3.40
2007,04,20,06,36,3.40
2007,04,20,06,37,3.40
2007,04,20,06,38,3.40
2007,04,20,06,39,3.40
2007,04,20,06,40,3.50
2007,04,20,06,41,3.40
2007,04,20,06,42,3.40
2007,04,20,06,43,3.40
2007,04,20,06,44,3.40
2007,04,20,06,45,3.40
2007,04,20,06,46,3.40
2007,04,20,06,47,3.40
2007,04,20,06,48,3.50
2007,04,20,06,49,3.50
2007,04,20,06,50,3.50
2007,04,20,06,51,3.50
2007,04,20,06,52,3.50
2007,04,20,06,53,3.50
2007,04,20,06,54,3.60
2007,04,20,06,55,3.60
2007,04,20,06,56,3.60
2007,04,20,06,57,3.70
2007,04,20,06,58,3.70
2007,04,20,06,59,3.70
2007,04,20,07,00,3.80
2007,04,20,07,01,3.80
2007,04,20,07,02,3.80
2007,04,20,07,03,3.90
2007,04,20,07,04,3.90
2007,04,20,07,05,4.00
2007,04,20,07,06,4.00
2007,04,20,07,07,4.10
2007,04,20,07,08,4.20
2007,04,20,07,09,4.20
2007,04,20,07,10,4.30
2007,04,20,07,11,4.40
2007,04,20,07,12,4.50
2007,04,20,07,13,4.50
2007,04,20,07,14,4.60
2007,04,20,07,15,4.70
2007,04,20,07,16,4.70
2007,04,20,07,17,4.80
2007,04,20,07,18,5.00
2007,04,20,07,19,5.10
2007,04,20,07,20,5.30
2007,04,20,07,21,5.40
2007,04,20,07,22,5.60
2007,04,20,07,23,5.70
2007,04,20,07,24,5.80
2007,04,20,07,25,5.90
2007,04,20,07,26,6.00
2007,04,20,07,27,6.00
2007,04,20,07,28,6.10
2007,04,20,07,29,6.20
2007,04,20,07,30,6.30
2007,04,20,07,31,6.30
2007,04,20,07,32,6.40
2007,04,20,07,33,6.60
2007,04,20,07,34,6.60
2007,04,20,07,35,6.70
2007,04,20,07,36,6.80
2007,04,20,07,37,6.90
2007,04,20,07,38,6.90
2007,04,20,07,39,6.90
2007,04,20,07,40,7.00
2007,04,20,07,41,7.10
2007,04,20,07,42,7.10
2007,04,20,07,43,7.10
2007,04,20,07,44,7.20
2007,04,20,07,45,7.20
2007,04,20,07,46,7.30
2007,04,20,07,47,7.30
2007,04,20,07,48,7.30
2007,04,20,07,49,7.30
2007,04,20,07,50,7.40
2007,04,20,07,51,7.50
2007,04,20,07,52,7.60
2007,04,20,07,53,7.60
2007,04,20,07,54,7.50
2007,04,20,07,55,7.50
2007,04,20,07,56,7.50
2007,04,20,07,57,7.50
2007,04,20,07,58,7.60
2007,04,20,07,59,7.60
2007,04,20,08,00,7.50
2007,04,20,08,01,7.50
2007,04,20,08,02,7.50
2007,04,20,08,03,7.50
2007,04,20,08,04,7.40
2007,04,20,08,05,7.40
2007,04,20,08,06,7.30
2007,04,20,08,07,7.30
2007,04,20,08,08,7.30
2007,04,20,08,09,7.30
2007,04,20,08,10,7.30
2007,04,20,08,11,7.30
2007,04,20,08,12,7.30
2007,04,20,08,13,7.20
2007,04,20,08,14,7.20
2007,04,20,08,15,7.20
2007,04,20,08,16,7.10
2007,04,20,08,17,7.10
2007,04,20,08,18,7.10
2007,04,20,08,19,7.10
2007,04,20,08,20,7.10
2007,04,20,08,21,7.10
2007,04,20,08,22,7.10
2007,04,20,08,23,7.10
2007,04,20,08,24,7.10
2007,04,20,08,25,7.10
2007,04,20,08,26,7.10
2007,04,20,08,27,7.20
2007,04,20,08,28,7.20
2007,04,20,08,29,7.20
2007,04,20,08,30,7.30
2007,04,20,08,31,7.30
2007,04,20,08,32,7.30
2007,04,20,08,33,7.30
2007,04,20,08,34,7.30
2007,04,20,08,35,7.20
2007,04,20,08,36,7.20
2007,04,20,08,37,7.20
2007,04,20,08,38,7.20
2007,04,20,08,39,7.20
2007,04,20,08,40,7.30
2007,04,20,08,41,7.30
2007,04,20,08,42,7.30
2007,04,20,08,43,7.40
2007,04,20,08,44,7.50
2007,04,20,08,45,7.60
2007,04,20,08,46,7.70
2007,04,20,08,47,7.70
2007,04,20,08,48,7.80
2007,04,20,08,49,7.80
2007,04,20,08,50,7.80
2007,04,20,08,51,7.80
2007,04,20,08,52,7.80
2007,04,20,08,53,7.80
2007,04,20,08,54,7.80
2007,04,20,08,55,7.70
2007,04,20,08,56,7.60
2007,04,20,08,57,7.60
2007,04,20,08,58,7.60
2007,04,20,08,59,7.60
2007,04,20,09,00,7.60
2007,04,20,09,01,7.80
2007,04,20,09,02,7.80
2007,04,20,09,03,7.80
2007,04,20,09,04,7.90
2007,04,20,09,05,7.90
2007,04,20,09,06,7.90
2007,04,20,09,07,7.80
2007,04,20,09,08,7.70
2007,04,20,09,09,7.70
2007,04,20,09,10,7.70
2007,04,20,09,11,7.60
2007,04,20,09,12,7.50
2007,04,20,09,13,7.40
2007,04,20,09,14,7.40
2007,04,20,09,15,7.50
2007,04,20,09,16,7.50
2007,04,20,09,17,7.60
2007,04,20,09,18,7.70
2007,04,20,09,19,7.80
2007,04,20,09,20,7.70
2007,04,20,09,21,7.70
2007,04,20,09,22,7.70
2007,04,20,09,23,7.60
2007,04,20,09,24,7.60
2007,04,20,09,25,7.60
2007,04,20,09,26,7.50
2007,04,20,09,27,7.40
2007,04,20,09,28,7.40
2007,04,20,09,29,7.50
2007,04,20,09,30,7.60
2007,04,20,09,31,7.70
2007,04,20,09,32,7.80
2007,04,20,09,33,7.80
2007,04,20,09,34,7.80
2007,04,20,09,35,7.80
2007,04,20,09,36,7.70
2007,04,20,09,37,7.70
2007,04,20,09,38,7.70
2007,04,20,09,39,7.50
2007,04,20,09,40,7.40
2007,04,20,09,41,7.40
2007,04,20,09,42,7.40
2007,04,20,09,43,7.40
2007,04,20,09,44,7.50
2007,04,20,09,45,7.60
2007,04,20,09,46,7.70
2007,04,20,09,47,7.70
2007,04,20,09,48,7.70
2007,04,20,09,49,7.60
2007,04,20,09,50,7.70
2007,04,20,09,51,7.70
2007,04,20,09,52,7.70
2007,04,20,09,53,7.70
2007,04,20,09,54,7.70
2007,04,20,09,55,7.70
2007,04,20,09,56,7.70
2007,04,20,09,57,7.70
2007,04,20,09,58,7.80
2007,04,20,09,59,7.80
2007,04,20,10,00,7.90
2007,04,20,10,01,8.00
2007,04,20,10,02,8.10
2007,04,20,10,03,8.20
2007,04,20,10,04,8.20
2007,04,20,10,05,8.30
2007,04,20,10,06,8.20
2007,04,20,10,07,8.20
2007,04,20,10,08,8.20
2007,04,20,10,09,8.30
2007,04,20,10,10,8.40
2007,04,20,10,11,8.50
2007,04,20,10,12,8.60
2007,04,20,10,13,8.70
2007,04,20,10,14,8.70
2007,04,20,10,15,8.70
2007,04,20,10,16,8.70
2007,04,20,10,17,8.80
2007,04,20,10,18,8.80
2007,04,20,10,19,8.80
2007,04,20,10,20,8.70
2007,04,20,10,21,8.60
2007,04,20,10,22,8.50
2007,04,20,10,23,8.40
2007,04,20,10,24,8.40
2007,04,20,10,25,8.40
2007,04,20,10,26,8.40
2007,04,20,10,27,8.40
2007,04,20,10,28,8.50
2007,04,20,10,29,8.60
2007,04,20,10,30,8.60
2007,04,20,10,31,8.60
2007,04,20,10,32,8.70
2007,04,20,10,33,8.70
2007,04,20,10,34,8.60
2007,04,20,10,35,8.50
2007,04,20,10,36,8.50
2007,04,20,10,37,8.60
2007,04,20,10,38,8.70
2007,04,20,10,39,8.80
2007,04,20,10,40,8.90
2007,04,20,10,41,9.00
2007,04,20,10,42,9.00
2007,04,20,10,43,8.90
2007,04,20,10,44,8.90
2007,04,20,10,45,8.90
2007,04,20,10,46,8.80
2007,04,20,10,47,8.70
2007,04,20,10,48,8.80
2007,04,20,10,49,8.80
2007,04,20,10,50,8.80
2007,04,20,10,51,8.90
2007,04,20,10,52,8.90
2007,04,20,10,53,8.90
2007,04,20,10,54,8.90
2007,04,20,10,55,8.90
2007,04,20,10,56,8.80
2007,04,20,10,57,8.80
2007,04,20,10,58,8.80
2007,04,20,10,59,8.70
2007,04,20,11,00,8.70
2007,04,20,11,01,8.60
2007,04,20,11,02,8.60
2007,04,20,11,03,8.60
2007,04,20,11,04,8.70
2007,04,20,11,05,8.70
2007,04,20,11,06,8.70
2007,04,20,11,07,8.60
2007,04,20,11,08,8.50
2007,04,20,11,09,8.50
2007,04,20,11,10,8.40
2007,04,20,11,11,8.40
2007,04,20,11,12,8.40
2007,04,20,11,13,8.40
2007,04,20,11,14,8.40
2007,04,20,11,15,8.60
2007,04,20,11,16,8.70
2007,04,20,11,17,8.70
2007,04,20,11,18,8.80
2007,04,20,11,19,8.80
2007,04,20,11,20,8.80
2007,04,20,11,21,8.70
2007,04,20,11,22,8.70
2007,04,20,11,23,8.70
2007,04,20,11,24,8.70
2007,04,20,11,25,8.60
2007,04,20,11,26,8.60
2007,04,20,11,27,8.60
2007,04,20,11,28,8.70
2007,04,20,11,29,8.70
2007,04,20,11,30,8.70
2007,04,20,11,31,8.70
2007,04,20,11,32,8.80
2007,04,20,11,33,8.80
2007,04,20,11,34,8.90
2007,04,20,11,35,8.90
2007,04,20,11,36,8.80
2007,04,20,11,37,8.70
2007,04,20,11,38,8.70
2007,04,20,11,39,8.70
2007,04,20,11,40,8.70
2007,04,20,11,41,8.70
2007,04,20,11,42,8.70
2007,04,20,11,43,8.70
2007,04,20,11,44,8.70
2007,04,20,11,45,8.70
2007,04,20,11,46,8.70
2007,04,20,11,47,8.70
2007,04,20,11,48,8.80
2007,04,20,11,49,8.90
2007,04,20,11,50,8.90
2007,04,20,11,51,8.80
2007,04,20,11,52,8.70
2007,04,20,11,53,8.80
2007,04,20,11,54,8.80
2007,04,20,11,55,8.80
2007,04,20,11,56,8.80
2007,04,20,11,57,8.80
2007,04,20,11,58,8.70
2007,04,20,11,59,8.70
2007,04,20,12,00,8.70
2007,04,20,12,01,8.60
2007,04,20,12,02,8.60
2007,04,20,12,03,8.60
2007,04,20,12,04,8.60
2007,04,20,12,05,8.60
2007,04,20,12,06,8.60
2007,04,20,12,07,8.70
2007,04,20,12,08,8.80
2007,04,20,12,09,8.80
2007,04,20,12,10,8.70
2007,04,20,12,11,8.70
2007,04,20,12,12,8.60
2007,04,20,12,13,8.60
2007,04,20,12,14,8.70
2007,04,20,12,15,8.70
2007,04,20,12,16,8.70
2007,04,20,12,17,8.70
2007,04,20,12,18,8.70
2007,04,20,12,19,8.70
2007,04,20,12,20,8.70
2007,04,20,12,21,8.70
2007,04,20,12,22,8.80
2007,04,20,12,23,8.80
2007,04,20,12,24,8.80
2007,04,20,12,25,8.80
2007,04,20,12,26,8.90
2007,04,20,12,27,9.00
2007,04,20,12,28,9.10
2007,04,20,12,29,9.10
2007,04,20,12,30,9.10
2007,04,20,12,31,9.10
2007,04,20,12,32,9.20
2007,04,20,12,33,9.30
2007,04,20,12,34,9.30
2007,04,20,12,35,9.30
2007,04,20,12,36,9.30
2007,04,20,12,37,9.30
2007,04,20,12,38,9.30
2007,04,20,12,39,9.40
2007,04,20,12,40,9.30
2007,04,20,12,41,9.20
2007,04,20,12,42,9.10
2007,04,20,12,43,9.20
2007,04,20,12,44,9.20
2007,04,20,12,45,9.30
2007,04,20,12,46,9.50
2007,04,20,12,47,9.60
2007,04,20,12,48,9.60
2007,04,20,12,49,9.70
2007,04,20,12,50,9.70
2007,04,20,12,51,9.70
2007,04,20,12,52,9.60
2007,04,20,12,53,9.50
2007,04,20,12,54,9.50
2007,04,20,12,55,9.50
2007,04,20,12,56,9.40
2007,04,20,12,57,9.30
2007,04,20,12,58,9.20
2007,04,20,12,59,9.20
2007,04,20,13,00,9.20
2007,04,20,13,01,9.10
2007,04,20,13,02,9.10
2007,04,20,13,03,9.00
2007,04,20,13,04,9.10
2007,04,20,13,05,9.10
2007,04,20,13,06,9.20
2007,04,20,13,07,9.30
2007,04,20,13,08,9.50
2007,04,20,13,09,9.60
2007,04,20,13,10,9.70
2007,04,20,13,11,9.70
2007,04,20,13,12,9.80
2007,04,20,13,13,9.90
2007,04,20,13,14,9.90
2007,04,20,13,15,9.80
2007,04,20,13,16,9.80
2007,04,20,13,17,9.60
2007,04,20,13,18,9.50
2007,04,20,13,19,9.50
2007,04,20,13,20,9.50
2007,04,20,13,21,9.40
2007,04,20,13,22,9.30
2007,04,20,13,23,9.20
2007,04,20,13,24,9.20
2007,04,20,13,25,9.20
2007,04,20,13,26,9.10
2007,04,20,13,27,9.30
2007,04,20,13,28,9.40
2007,04,20,13,29,9.40
2007,04,20,13,30,9.50
2007,04,20,13,31,9.50
2007,04,20,13,32,9.50
2007,04,20,13,33,9.60
2007,04,20,13,34,9.70
2007,04,20,13,35,9.70
2007,04,20,13,36,9.80
2007,04,20,13,37,9.90
2007,04,20,13,38,9.90
2007,04,20,13,39,9.80
2007,04,20,13,40,9.70
2007,04,20,13,41,9.50
2007,04,20,13,42,9.50
2007,04,20,13,43,9.40
2007,04,20,13,44,9.40
2007,04,20,13,45,9.40
2007,04,20,13,46,9.30
2007,04,20,13,47,9.30
2007,04,20,13,48,9.30
2007,04,20,13,49,9.30
2007,04,20,13,50,9.30
2007,04,20,13,51,9.20
2007,04,20,13,52,9.30
2007,04,20,13,53,9.50
2007,04,20,13,54,9.60
2007,04,20,13,55,9.60
2007,04,20,13,56,9.50
2007,04,20,13,57,9.40
2007,04,20,13,58,9.40
2007,04,20,13,59,9.40
2007,04,20,14,00,9.40
2007,04,20,14,01,9.30
2007,04,20,14,02,9.30
2007,04,20,14,03,9.40
2007,04,20,14,04,9.50
2007,04,20,14,05,9.50
2007,04,20,14,06,9.60
2007,04,20,14,07,9.50
2007,04,20,14,08,9.50
2007,04,20,14,09,9.40
2007,04,20,14,10,9.50
2007,04,20,14,11,9.50
2007,04,20,14,12,9.40
2007,04,20,14,13,9.30
2007,04,20,14,14,9.20
2007,04,20,14,15,9.10
2007,04,20,14,16,9.10
2007,04,20,14,17,9.20
2007,04,20,14,18,9.20
2007,04,20,14,19,9.20
2007,04,20,14,20,9.20
2007,04,20,14,21,9.20
2007,04,20,14,22,9.20
2007,04,20,14,23,9.30
2007,04,20,14,24,9.40
2007,04,20,14,25,9.50
2007,04,20,14,26,9.50
2007,04,20,14,27,9.50
2007,04,20,14,28,9.40
2007,04,20,14,29,9.50
2007,04,20,14,30,9.50
2007,04,20,14,31,9.60
2007,04,20,14,32,9.70
2007,04,20,14,33,9.80
2007,04,20,14,34,9.90
2007,04,20,14,35,10.00
2007,04,20,14,36,10.00
2007,04,20,14,37,9.90
2007,04,20,14,38,9.80
2007,04,20,14,39,9.70
2007,04,20,14,40,9.70
2007,04,20,14,41,9.70
2007,04,20,14,42,9.70
2007,04,20,14,43,9.70
2007,04,20,14,44,9.80
2007,04,20,14,45,9.90
2007,04,20,14,46,9.90
2007,04,20,14,47,10.10
2007,04,20,14,48,10.10
2007,04,20,14,49,10.10
2007,04,20,14,50,10.10
2007,04,20,14,51,10.10
2007,04,20,14,52,10.10
2007,04,20,14,53,10.10
2007,04,20,14,54,10.10
2007,04,20,14,55,10.20
2007,04,20,14,56,10.20
2007,04,20,14,57,10.10
2007,04,20,14,58,9.90
2007,04,20,14,59,9.70
2007,04,20,15,00,9.40
2007,04,20,15,01,9.40
2007,04,20,15,02,9.30
2007,04,20,15,03,9.20
2007,04,20,15,04,9.30
2007,04,20,15,05,9.30
2007,04,20,15,06,9.40
2007,04,20,15,07,9.40
2007,04,20,15,08,9.50
2007,04,20,15,09,9.50
2007,04,20,15,10,9.50
2007,04,20,15,11,9.60
2007,04,20,15,12,9.70
2007,04,20,15,13,9.70
2007,04,20,15,14,9.70
2007,04,20,15,15,9.70
2007,04,20,15,16,9.80
2007,04,20,15,17,9.80
2007,04,20,15,18,9.70
2007,04,20,15,19,9.70
2007,04,20,15,20,9.70
2007,04,20,15,21,9.70
2007,04,20,15,22,9.70
2007,04,20,15,23,9.80
2007,04,20,15,24,9.80
2007,04,20,15,25,9.70
2007,04,20,15,26,9.80
2007,04,20,15,27,9.80
2007,04,20,15,28,9.90
2007,04,20,15,29,9.90
2007,04,20,15,30,9.90
2007,04,20,15,31,9.90
2007,04,20,15,32,10.00
2007,04,20,15,33,10.10
2007,04,20,15,34,10.10
2007,04,20,15,35,10.20
2007,04,20,15,36,10.20
2007,04,20,15,37,10.30
2007,04,20,15,38,10.30
2007,04,20,15,39,10.40
2007,04,20,15,40,10.40
2007,04,20,15,41,10.40
2007,04,20,15,42,10.50
2007,04,20,15,43,10.60
2007,04,20,15,44,10.60
2007,04,20,15,45,10.60
2007,04,20,15,46,10.70
2007,04,20,15,47,10.70
2007,04,20,15,48,10.80
2007,04,20,15,49,10.90
2007,04,20,15,50,10.90
2007,04,20,15,51,10.90
2007,04,20,15,52,10.90
2007,04,20,15,53,11.00
2007,04,20,15,54,11.10
2007,04,20,15,55,11.10
2007,04,20,15,56,11.20
2007,04,20,15,57,11.20
2007,04,20,15,58,11.20
2007,04,20,15,59,11.10
2007,04,20,16,00,11.10
2007,04,20,16,01,11.10
2007,04,20,16,02,11.10
2007,04,20,16,03,11.10
2007,04,20,16,04,11.10
2007,04,20,16,05,11.20
2007,04,20,16,06,11.30
2007,04,20,16,07,11.30
2007,04,20,16,08,11.40
2007,04,20,16,09,11.30
2007,04,20,16,10,11.30
2007,04,20,16,11,11.20
2007,04,20,16,12,11.20
2007,04,20,16,13,11.20
2007,04,20,16,14,11.20
2007,04,20,16,15,11.20
2007,04,20,16,16,11.20
2007,04,20,16,17,11.20
2007,04,20,16,18,11.20
2007,04,20,16,19,11.20
2007,04,20,16,20,11.20
2007,04,20,16,21,11.20
2007,04,20,16,22,11.30
2007,04,20,16,23,11.30
2007,04,20,16,24,11.30
2007,04,20,16,25,11.40
2007,04,20,16,26,11.40
2007,04,20,16,27,11.40
2007,04,20,16,28,11.40
2007,04,20,16,29,11.40
2007,04,20,16,30,11.40
2007,04,20,16,31,11.50
2007,04,20,16,32,11.50
2007,04,20,16,33,11.40
2007,04,20,16,34,11.40
2007,04,20,16,35,11.40
2007,04,20,16,36,11.40
2007,04,20,16,37,11.40
2007,04,20,16,38,11.40
2007,04,20,16,39,11.40
2007,04,20,16,40,11.40
2007,04,20,16,41,11.40
2007,04,20,16,42,11.40
2007,04,20,16,43,11.40
2007,04,20,16,44,11.40
2007,04,20,16,45,11.40
2007,04,20,16,46,11.60
2007,04,20,16,47,11.60
2007,04,20,16,48,11.60
2007,04,20,16,49,11.60
2007,04,20,16,50,11.60
2007,04,20,16,51,11.60
2007,04,20,16,52,11.40
2007,04,20,16,53,11.50
2007,04,20,16,54,11.60
2007,04,20,16,55,11.60
2007,04,20,16,56,11.60
2007,04,20,16,57,11.60
2007,04,20,16,58,11.60
2007,04,20,16,59,11.60
2007,04,20,17,00,11.60
2007,04,20,17,01,11.60
2007,04,20,17,02,11.40
2007,04,20,17,03,11.40
2007,04,20,17,04,11.40
2007,04,20,17,05,11.60
2007,04,20,17,06,11.60
2007,04,20,17,07,11.50
2007,04,20,17,08,11.40
2007,04,20,17,09,11.40
2007,04,20,17,10,11.40
2007,04,20,17,11,11.40
2007,04,20,17,12,11.40
2007,04,20,17,13,11.40
2007,04,20,17,14,11.50
2007,04,20,17,15,11.60
2007,04,20,17,16,11.60
2007,04,20,17,17,11.60
2007,04,20,17,18,11.60
2007,04,20,17,19,11.60
2007,04,20,17,20,11.60
2007,04,20,17,21,11.70
2007,04,20,17,22,11.70
2007,04,20,17,23,11.70
2007,04,20,17,24,11.70
2007,04,20,17,25,11.80
2007,04,20,17,26,11.80
2007,04,20,17,27,11.80
2007,04,20,17,28,11.80
2007,04,20,17,29,11.80
2007,04,20,17,30,11.80
2007,04,20,17,31,11.80
2007,04,20,17,32,11.80
2007,04,20,17,33,11.80
2007,04,20,17,34,11.80
2007,04,20,17,35,11.80
2007,04,20,17,36,11.80
2007,04,20,17,37,11.80
2007,04,20,17,38,11.80
2007,04,20,17,39,11.80
2007,04,20,17,40,11.80
2007,04,20,17,41,11.80
2007,04,20,17,42,11.70
2007,04,20,17,43,11.70
2007,04,20,17,44,11.60
2007,04,20,17,45,11.50
2007,04,20,17,46,11.40
2007,04,20,17,47,11.40
2007,04,20,17,48,11.40
2007,04,20,17,49,11.30
2007,04,20,17,50,11.20
2007,04,20,17,51,11.20
2007,04,20,17,52,11.10
2007,04,20,17,53,11.10
2007,04,20,17,54,11.10
2007,04,20,17,55,11.10
2007,04,20,17,56,10.90
2007,04,20,17,57,10.90
2007,04,20,17,58,10.80
2007,04,20,17,59,10.80